Location: �quirre
(50.4736°N, 2.2351°E)
Time: 06:29:01
(UTC+00:00)

SL-4 R/B - Pass Details

Date: 07 August 2020
Orbit: 428 x 665 km, 51.6° (Epoch: 23 September)

Event Time Altitude Azimuth Distance (km) Brightness Sun altitude
Exits shadow 01:57:49 38° 271° (W) 677 2.2 -18.1°
Maximum altitude 01:58:56 68° 201° (SSW) 471 1.4 -18.0°
Drops below altitude 10° 02:02:19 10° 118° (ESE) 1,523 4.3 -17.7°
Sets 02:04:25 0° 116° (ESE) 2,388 5.4 -17.6°
